When you browse on this site, cookies collect data to enhance your experience and personalize the content and advertising you see.
Visit our Privacy Policy to learn more. By continuing to use the site, you agree to this use of cookies and data.
  • Em Portugal
  • Lista de países
  • Para 7 dias
  • Temperatura da água
  • Mapas de satélite
  • Mapa do tempo
  • Widgets de tempo
  • user-avatar
    Iniciar Sessão

    Previsão horária em Niewodna

    Hoje, 25 Março, Segunda-feira

    Tempo Temperatura Precipitação Vento Pressão Humidade
    00:00 +7°C° 0.2 mm 1 m/s 731 mmHg 65%
    01:00 +7°C° 0 mm 1 m/s 730 mmHg 72%
    02:00 +6°C° 0.2 mm 1 m/s 729 mmHg 75%
    03:00 +6°C° 0.2 mm 1 m/s 729 mmHg 78%
    04:00 +6°C° 0.2 mm 1 m/s 729 mmHg 81%
    05:00 +6°C° 0.1 mm 1 m/s 728 mmHg 82%
    06:00 +5°C° 0.1 mm 2 m/s 728 mmHg 82%
    07:00 +5°C° 0 mm 2 m/s 728 mmHg 82%
    08:00 +6°C° 0 mm 2 m/s 728 mmHg 74%
    09:00 +7°C° 0 mm 3 m/s 728 mmHg 65%
    10:00 +8°C° 0 mm 3 m/s 728 mmHg 57%
    11:00 +9°C° 0.1 mm 3 m/s 727 mmHg 54%
    12:00 +8°C° 0.1 mm 4 m/s 727 mmHg 51%
    13:00 +10°C° 0.1 mm 4 m/s 727 mmHg 48%
    14:00 +8°C° 0.2 mm 4 m/s 726 mmHg 49%
    15:00 +8°C° 0.2 mm 4 m/s 726 mmHg 51%
    16:00 +8°C° 0.2 mm 5 m/s 726 mmHg 52%
    17:00 +7°C° 0.1 mm 4 m/s 726 mmHg 58%
    18:00 +5°C° 0.1 mm 4 m/s 727 mmHg 63%
    19:00 +4°C° 0.1 mm 4 m/s 727 mmHg 69%
    20:00 +4°C° 0 mm 4 m/s 727 mmHg 72%
    21:00 +3°C° 0 mm 4 m/s 728 mmHg 74%
    22:00 +1°C° 0 mm 4 m/s 728 mmHg 77%
    23:00 +1°C° 0 mm 4 m/s 729 mmHg 79%

    Amanhã, 26 Março, Terça-feira

    Tempo Temperatura Precipitação Vento Pressão Humidade
    00:00 +1°C° 0 mm 4 m/s 729 mmHg 81%
    01:00 +1°C° 0 mm 4 m/s 730 mmHg 83%
    02:00 0°C° 0 mm 4 m/s 730 mmHg 85%
    03:00 0°C° 0 mm 4 m/s 731 mmHg 87%
    04:00 0°C° 0 mm 3 m/s 731 mmHg 89%
    05:00 0°C° 0 mm 4 m/s 732 mmHg 87%
    06:00 0°C° 0 mm 4 m/s 732 mmHg 84%
    07:00 0°C° 0 mm 4 m/s 733 mmHg 82%
    08:00 +1°C° 0 mm 5 m/s 733 mmHg 77%
    09:00 +2°C° 0 mm 5 m/s 733 mmHg 71%
    10:00 +3°C° 0 mm 6 m/s 734 mmHg 65%
    11:00 +3°C° 0 mm 6 m/s 734 mmHg 62%
    12:00 +4°C° 0 mm 6 m/s 733 mmHg 59%
    13:00 +4°C° 0 mm 7 m/s 733 mmHg 56%
    14:00 +4°C° 0 mm 7 m/s 733 mmHg 56%
    15:00 +4°C° 0 mm 7 m/s 732 mmHg 56%
    16:00 +4°C° 0 mm 8 m/s 732 mmHg 56%
    17:00 +4°C° 0.2 mm 8 m/s 732 mmHg 59%
    18:00 +2°C° 0.2 mm 8 m/s 732 mmHg 61%
    19:00 +1°C° 0.2 mm 8 m/s 732 mmHg 64%
    20:00 +2°C° 0.1 mm 7 m/s 733 mmHg 67%
    21:00 0°C° 0.1 mm 7 m/s 734 mmHg 69%
    22:00 -1°C° 0.1 mm 7 m/s 734 mmHg 71%
    23:00 -2°C° 0 mm 6 m/s 735 mmHg 69%

    Depois de amanhã, 27 Março, Quarta-feira

    Tempo Temperatura Precipitação Vento Pressão Humidade
    00:00 -2°C° 0 mm 5 m/s 735 mmHg 67%
    01:00 -4°C° 0 mm 4 m/s 736 mmHg 64%
    02:00 -4°C° 0 mm 3 m/s 736 mmHg 66%
    03:00 -4°C° 0 mm 3 m/s 736 mmHg 68%
    04:00 -4°C° 0 mm 3 m/s 736 mmHg 70%
    05:00 -4°C° 0 mm 3 m/s 737 mmHg 66%
    06:00 -3°C° 0 mm 4 m/s 737 mmHg 63%
    07:00 -2°C° 0 mm 4 m/s 738 mmHg 59%
    08:00 -1°C° 0 mm 4 m/s 738 mmHg 54%
    09:00 +1°C° 0 mm 4 m/s 738 mmHg 48%
    10:00 +3°C° 0 mm 4 m/s 739 mmHg 43%
    11:00 +4°C° 0 mm 4 m/s 739 mmHg 41%
    12:00 +5°C° 0 mm 4 m/s 739 mmHg 39%
    13:00 +6°C° 0 mm 5 m/s 738 mmHg 37%
    14:00 +6°C° 0 mm 5 m/s 738 mmHg 41%
    15:00 +6°C° 0 mm 5 m/s 738 mmHg 46%
    16:00 +6°C° 0 mm 5 m/s 738 mmHg 51%
    17:00 +5°C° 0.1 mm 4 m/s 738 mmHg 59%
    18:00 +5°C° 0.1 mm 2 m/s 739 mmHg 66%
    19:00 +5°C° 0.1 mm 1 m/s 739 mmHg 74%
    20:00 +5°C° 0.4 mm 1 m/s 739 mmHg 77%
    21:00 +5°C° 0.4 mm 1 m/s 739 mmHg 81%
    22:00 +5°C° 0.4 mm 1 m/s 740 mmHg 84%
    23:00 +5°C° 0.3 mm 1 m/s 740 mmHg 87%

    28 Março, Quinta-feira

    Tempo Temperatura Precipitação Vento Pressão Humidade
    00:00 +5°C° 0.3 mm 1 m/s 740 mmHg 89%
    01:00 +4°C° 0.3 mm 1 m/s 740 mmHg 92%
    02:00 +4°C° 0 mm 1 m/s 740 mmHg 93%
    03:00 +4°C° 0 mm 1 m/s 740 mmHg 94%
    04:00 +3°C° 0 mm 1 m/s 740 mmHg 96%
    05:00 +4°C° 0 mm 1 m/s 740 mmHg 94%
    06:00 +5°C° 0 mm 1 m/s 740 mmHg 93%
    07:00 +5°C° 0 mm 1 m/s 741 mmHg 91%
    08:00 +6°C° 0.1 mm 1 m/s 741 mmHg 88%
    09:00 +6°C° 0.1 mm 1 m/s 741 mmHg 85%
    10:00 +7°C° 0.1 mm 1 m/s 741 mmHg 82%
    11:00 +8°C° 0.3 mm 1 m/s 741 mmHg 79%
    12:00 +8°C° 0.3 mm 1 m/s 741 mmHg 77%
    13:00 +9°C° 0.3 mm 1 m/s 741 mmHg 74%
    14:00 +9°C° 0.1 mm 1 m/s 741 mmHg 72%
    15:00 +10°C° 0.1 mm 1 m/s 741 mmHg 69%
    16:00 +10°C° 0.1 mm 1 m/s 741 mmHg 67%
    17:00 +9°C° 0 mm 1 m/s 741 mmHg 73%
    18:00 +7°C° 0 mm 1 m/s 742 mmHg 78%
    19:00 +6°C° 0 mm 1 m/s 742 mmHg 84%
    20:00 +5°C° 0 mm 1 m/s 742 mmHg 85%
    21:00 +5°C° 0 mm 1 m/s 743 mmHg 86%
    22:00 +4°C° 0 mm 0 m/s 743 mmHg 86%
    23:00 +3°C° 0 mm 0 m/s 743 mmHg 87%

    29 Março, Sexta-feira

    Tempo Temperatura Precipitação Vento Pressão Humidade
    00:00 +3°C° 0 mm 0 m/s 743 mmHg 87%
    01:00 +2°C° 0 mm 0 m/s 743 mmHg 88%
    02:00 +2°C° 0 mm 0 m/s 743 mmHg 88%
    03:00 +2°C° 0 mm 0 m/s 744 mmHg 89%
    04:00 +3°C° 0 mm 1 m/s 744 mmHg 89%
    05:00 +3°C° 0 mm 1 m/s 744 mmHg 88%
    06:00 +4°C° 0 mm 1 m/s 744 mmHg 87%
    07:00 +5°C° 0 mm 1 m/s 744 mmHg 86%
    08:00 +5°C° 0 mm 2 m/s 744 mmHg 81%
    09:00 +7°C° 0 mm 2 m/s 744 mmHg 75%
    10:00 +9°C° 0 mm 3 m/s 744 mmHg 70%
    11:00 +9°C° 0 mm 3 m/s 744 mmHg 67%
    12:00 +10°C° 0 mm 3 m/s 743 mmHg 64%
    13:00 +10°C° 0 mm 3 m/s 743 mmHg 61%
    14:00 +11°C° 0 mm 3 m/s 743 mmHg 59%
    15:00 +11°C° 0 mm 3 m/s 742 mmHg 57%
    16:00 +12°C° 0 mm 4 m/s 742 mmHg 55%
    17:00 +10°C° 0 mm 3 m/s 742 mmHg 61%
    18:00 +9°C° 0 mm 3 m/s 742 mmHg 67%
    19:00 +7°C° 0 mm 2 m/s 742 mmHg 73%
    20:00 +7°C° 0 mm 2 m/s 742 mmHg 74%
    21:00 +6°C° 0 mm 2 m/s 742 mmHg 76%
    22:00 +6°C° 0 mm 2 m/s 742 mmHg 77%
    23:00 +5°C° 0 mm 2 m/s 741 mmHg 79%

    30 Março, Sábado

    Tempo Temperatura Precipitação Vento Pressão Humidade
    00:00 +5°C° 0 mm 2 m/s 741 mmHg 80%
    01:00 +5°C° 0 mm 2 m/s 741 mmHg 82%
    02:00 +4°C° 0 mm 2 m/s 741 mmHg 84%
    03:00 +4°C° 0 mm 2 m/s 741 mmHg 86%
    04:00 +4°C° 0 mm 2 m/s 741 mmHg 88%
    05:00 +5°C° 0 mm 2 m/s 741 mmHg 87%
    06:00 +5°C° 0 mm 2 m/s 741 mmHg 85%
    07:00 +6°C° 0 mm 2 m/s 741 mmHg 83%
    08:00 +8°C° 0 mm 2 m/s 741 mmHg 79%
    09:00 +10°C° 0 mm 3 m/s 740 mmHg 74%
    10:00 +12°C° 0 mm 3 m/s 740 mmHg 70%
    11:00 +12°C° 0 mm 3 m/s 740 mmHg 66%
    12:00 +13°C° 0 mm 3 m/s 739 mmHg 62%
    13:00 +14°C° 0 mm 3 m/s 739 mmHg 58%
    14:00 +15°C° 0 mm 2 m/s 738 mmHg 57%
    15:00 +16°C° 0 mm 2 m/s 738 mmHg 55%
    16:00 +16°C° 0 mm 2 m/s 737 mmHg 54%
    17:00 +14°C° 0 mm 1 m/s 737 mmHg 60%
    18:00 +12°C° 0 mm 1 m/s 737 mmHg 66%
    19:00 +11°C° 0 mm 1 m/s 736 mmHg 71%
    20:00 +10°C° 0 mm 1 m/s 736 mmHg 73%
    21:00 +10°C° 0 mm 1 m/s 736 mmHg 75%
    22:00 +9°C° 0 mm 1 m/s 735 mmHg 77%
    23:00 +9°C° 0 mm 1 m/s 735 mmHg 79%
    Mostrar mais